Time,TemperatureF,DewpointF,PressureIn,WindDirection,WindDirectionDegrees,WindSpeedMPH,WindSpeedGustMPH,Humidity,HourlyPrecipIn,Conditions,Clouds,dailyrainin,SolarRadiationWatts/m^2,SoftwareType,DateUTC
2013-04-12 00:00:00,68.2,61.8,25.91,SSE,155,1.0,1.0,80,0.00,,,0.00,0,Wunderground v.1.15,2013-04-12 06:00:00,
2013-04-12 00:10:00,68.0,61.2,25.91,SSE,155,1.0,1.0,79,0.00,,,0.00,0,Wunderground v.1.15,2013-04-12 06:10:00,
2013-04-12 00:20:00,67.8,61.0,25.90,SSE,155,1.0,1.0,79,0.00,,,0.00,0,Wunderground v.1.15,2013-04-12 06:20:00,
2013-04-12 00:30:00,67.8,61.4,25.90,SSE,155,1.0,1.0,80,0.00,,,0.00,0,Wunderground v.1.15,2013-04-12 06:30:00,
2013-04-12 00:35:00,67.7,61.3,25.90,SSE,155,1.0,1.0,80,0.00,,,0.00,0,Wunderground v.1.15,2013-04-12 06:35:00,
2013-04-12 00:45:00,67.5,60.8,25.90,SSE,155,0.0,1.0,79,0.00,,,0.00,0,Wunderground v.1.15,2013-04-12 06:45:00,
2013-04-12 00:55:00,67.2,60.1,25.90,SSE,155,0.0,1.0,78,0.00,,,0.00,0,Wunderground v.1.15,2013-04-12 06:55:00,
2013-04-12 01:00:00,67.0,59.9,25.89,SSE,155,0.0,0.0,78,0.00,,,0.00,0,Wunderground v.1.15,2013-04-12 07:00:00,
2013-04-12 01:10:00,66.8,59.4,25.89,SSE,155,1.0,1.0,77,0.00,,,0.00,0,Wunderground v.1.15,2013-04-12 07:10:00,
2013-04-12 01:15:00,66.7,59.3,25.89,SSE,155,1.0,1.0,77,0.00,,,0.00,0,Wunderground v.1.15,2013-04-12 07:15:00,
2013-04-12 01:25:00,66.5,59.4,25.89,SSE,155,2.0,2.0,78,0.00,,,0.00,0,Wunderground v.1.15,2013-04-12 07:25:00,
2013-04-12 01:30:00,66.7,59.6,25.89,SSE,155,2.0,4.0,78,0.00,,,0.00,0,Wunderground v.1.15,2013-04-12 07:30:00,
2013-04-12 01:40:00,66.8,59.7,25.89,SSE,155,1.0,1.0,78,0.00,,,0.00,0,Wunderground v.1.15,2013-04-12 07:40:00,
2013-04-12 01:45:00,67.0,60.3,25.89,SSE,155,1.0,1.0,79,0.00,,,0.00,0,Wunderground v.1.15,2013-04-12 07:45:00,
2013-04-12 01:55:00,67.0,60.3,25.88,SSE,155,2.0,2.0,79,0.00,,,0.00,0,Wunderground v.1.15,2013-04-12 07:55:00,
2013-04-12 02:05:00,67.2,60.5,25.88,SSE,161,2.0,2.0,79,0.00,,,0.00,0,Wunderground v.1.15,2013-04-12 08:05:00,
2013-04-12 02:10:00,67.2,60.5,25.88,SSE,161,2.0,4.0,79,0.00,,,0.00,0,Wunderground v.1.15,2013-04-12 08:10:00,
2013-04-12 02:20:00,67.2,60.5,25.87,SE,134,2.0,2.0,79,0.00,,,0.00,0,Wunderground v.1.15,2013-04-12 08:20:00,
2013-04-12 02:25:00,67.2,60.5,25.87,SE,134,2.0,2.0,79,0.00,,,0.00,0,Wunderground v.1.15,2013-04-12 08:25:00,
2013-04-12 02:30:00,67.2,60.5,25.87,SE,137,2.0,2.0,79,0.00,,,0.00,0,Wunderground v.1.15,2013-04-12 08:30:00,
2013-04-12 02:40:00,67.2,60.5,25.87,SE,140,2.0,2.0,79,0.00,,,0.00,0,Wunderground v.1.15,2013-04-12 08:40:00,
2013-04-12 02:45:00,67.2,60.5,25.87,SSE,148,2.0,4.0,79,0.00,,,0.00,0,Wunderground v.1.15,2013-04-12 08:45:00,
2013-04-12 02:55:00,67.0,60.3,25.87,SE,138,3.0,5.0,79,0.00,,,0.00,0,Wunderground v.1.15,2013-04-12 08:55:00,
2013-04-12 03:05:00,67.0,60.3,25.87,SSE,152,2.0,4.0,79,0.00,,,0.00,0,Wunderground v.1.15,2013-04-12 09:05:00,
2013-04-12 03:10:00,67.0,59.9,25.87,SE,140,2.0,2.0,78,0.00,,,0.00,0,Wunderground v.1.15,2013-04-12 09:10:00,
2013-04-12 03:15:00,67.0,59.9,25.87,SSE,157,2.0,2.0,78,0.00,,,0.00,0,Wunderground v.1.15,2013-04-12 09:15:00,
2013-04-12 03:25:00,66.8,60.1,25.87,SSE,157,1.0,2.0,79,0.00,,,0.00,0,Wunderground v.1.15,2013-04-12 09:25:00,
2013-04-12 03:30:00,66.8,59.7,25.87,SSE,157,1.0,1.0,78,0.00,,,0.00,0,Wunderground v.1.15,2013-04-12 09:30:00,
2013-04-12 03:40:00,66.7,60.0,25.87,SSE,157,0.0,0.0,79,0.00,,,0.00,0,Wunderground v.1.15,2013-04-12 09:40:00,
2013-04-12 03:50:00,66.5,59.8,25.87,SE,126,1.0,4.0,79,0.00,,,0.00,0,Wunderground v.1.15,2013-04-12 09:50:00,
2013-04-12 03:55:00,66.5,59.4,25.87,SSE,154,3.0,6.0,78,0.00,,,0.00,0,Wunderground v.1.15,2013-04-12 09:55:00,
2013-04-12 04:05:00,66.7,58.9,25.87,ENE,67,4.0,5.0,76,0.00,,,0.00,0,Wunderground v.1.15,2013-04-12 10:05:00,
2013-04-12 04:15:00,66.8,59.0,25.87,SE,135,1.0,2.0,76,0.00,,,0.00,0,Wunderground v.1.15,2013-04-12 10:15:00,
2013-04-12 04:25:00,66.7,58.9,25.88,East,98,1.0,1.0,76,0.00,,,0.00,0,Wunderground v.1.15,2013-04-12 10:25:00,
2013-04-12 04:30:00,66.8,59.0,25.88,NNE,24,2.0,2.0,76,0.00,,,0.00,0,Wunderground v.1.15,2013-04-12 10:30:00,
2013-04-12 04:40:00,66.5,58.7,25.88,ESE,105,1.0,1.0,76,0.00,,,0.00,0,Wunderground v.1.15,2013-04-12 10:40:00,
2013-04-12 04:50:00,66.2,58.8,25.88,ENE,78,0.0,0.0,77,0.00,,,0.00,0,Wunderground v.1.15,2013-04-12 10:50:00,
2013-04-12 05:00:00,65.9,58.8,25.89,ENE,78,0.0,1.0,78,0.00,,,0.00,0,Wunderground v.1.15,2013-04-12 11:00:00,
2013-04-12 05:10:00,65.2,58.2,25.89,East,82,1.0,1.0,78,0.00,,,0.00,0,Wunderground v.1.15,2013-04-12 11:10:00,
2013-04-12 05:15:00,65.1,57.7,25.89,East,95,1.0,1.0,77,0.00,,,0.00,0,Wunderground v.1.15,2013-04-12 11:15:00,
2013-04-12 05:25:00,64.7,57.0,25.90,East,95,0.0,2.0,76,0.00,,,0.00,0,Wunderground v.1.15,2013-04-12 11:25:00,
2013-04-12 05:35:00,64.4,57.0,25.90,ENE,76,0.0,0.0,77,0.00,,,0.00,5,Wunderground v.1.15,2013-04-12 11:35:00,
2013-04-12 05:40:00,64.2,56.5,25.90,East,79,0.0,0.0,76,0.00,,,0.00,12,Wunderground v.1.15,2013-04-12 11:40:00,
2013-04-12 05:50:00,64.6,57.2,25.91,East,79,0.0,0.0,77,0.00,,,0.00,28,Wunderground v.1.15,2013-04-12 11:50:00,
2013-04-12 06:00:00,64.9,58.2,25.91,East,89,1.0,1.0,79,0.00,,,0.00,90,Wunderground v.1.15,2013-04-12 12:00:00,
2013-04-12 06:10:00,65.7,58.3,25.91,East,92,2.0,5.0,77,0.00,,,0.00,100,Wunderground v.1.15,2013-04-12 12:10:00,
2013-04-12 06:15:00,66.0,58.6,25.91,East,85,2.0,5.0,77,0.00,,,0.00,127,Wunderground v.1.15,2013-04-12 12:15:00,
2013-04-12 06:25:00,67.2,59.0,25.91,ENE,70,2.0,3.0,75,0.00,,,0.00,183,Wunderground v.1.15,2013-04-12 12:25:00,
2013-04-12 06:35:00,68.7,59.3,25.91,East,96,1.0,1.0,72,0.00,,,0.00,260,Wunderground v.1.15,2013-04-12 12:35:00,
2013-04-12 06:40:00,69.5,60.1,25.92,SE,134,2.0,2.0,72,0.00,,,0.00,281,Wunderground v.1.15,2013-04-12 12:40:00,
2013-04-12 06:50:00,71.0,60.3,25.92,SE,140,2.0,4.0,69,0.00,,,0.00,320,Wunderground v.1.15,2013-04-12 12:50:00,
2013-04-12 06:55:00,71.7,60.2,25.92,SSE,157,3.0,4.0,67,0.00,,,0.00,207,Wunderground v.1.15,2013-04-12 12:55:00,
2013-04-12 07:05:00,72.0,60.0,25.92,SE,126,2.0,5.0,66,0.00,,,0.00,264,Wunderground v.1.15,2013-04-12 13:05:00,
2013-04-12 07:10:00,72.4,60.0,25.93,NE,56,2.0,2.0,65,0.00,,,0.00,332,Wunderground v.1.15,2013-04-12 13:10:00,
2013-04-12 07:15:00,72.9,60.0,25.93,NE,54,2.0,2.0,64,0.00,,,0.00,373,Wunderground v.1.15,2013-04-12 13:15:00,
2013-04-12 07:25:00,73.8,60.0,25.93,East,98,3.0,4.0,62,0.00,,,0.00,427,Wunderground v.1.15,2013-04-12 13:25:00,
2013-04-12 07:30:00,74.1,59.8,25.93,East,97,3.0,4.0,61,0.00,,,0.00,454,Wunderground v.1.15,2013-04-12 13:30:00,
2013-04-12 07:40:00,74.5,60.2,25.93,SE,133,4.0,5.0,61,0.00,,,0.00,480,Wunderground v.1.15,2013-04-12 13:40:00,
2013-04-12 07:50:00,75.2,58.9,25.93,East,90,2.0,2.0,57,0.00,,,0.00,519,Wunderground v.1.15,2013-04-12 13:50:00,
2013-04-12 08:00:00,75.2,58.9,25.93,West,263,2.0,2.0,57,0.00,,,0.00,547,Wunderground v.1.15,2013-04-12 14:00:00,
2013-04-12 08:10:00,76.7,58.8,25.93,East,80,1.0,1.0,54,0.00,,,0.00,587,Wunderground v.1.15,2013-04-12 14:10:00,
2013-04-12 08:20:00,77.6,59.1,25.93,SSE,151,3.0,3.0,53,0.00,,,0.00,610,Wunderground v.1.15,2013-04-12 14:20:00,
2013-04-12 08:25:00,77.3,58.3,25.93,North,10,3.0,3.0,52,0.00,,,0.00,633,Wunderground v.1.15,2013-04-12 14:25:00,
2013-04-12 08:35:00,77.8,56.5,25.93,East,88,2.0,3.0,48,0.00,,,0.00,661,Wunderground v.1.15,2013-04-12 14:35:00,
2013-04-12 08:45:00,78.2,57.5,25.93,NNE,19,2.0,2.0,49,0.00,,,0.00,700,Wunderground v.1.15,2013-04-12 14:45:00,
2013-04-12 08:55:00,77.8,57.7,25.93,SSE,161,4.0,4.0,50,0.00,,,0.00,710,Wunderground v.1.15,2013-04-12 14:55:00,
2013-04-12 09:00:00,77.6,57.5,25.93,East,89,3.0,3.0,50,0.00,,,0.00,738,Wunderground v.1.15,2013-04-12 15:00:00,
2013-04-12 09:05:00,78.0,57.3,25.93,NNE,29,3.0,8.0,49,0.00,,,0.00,749,Wunderground v.1.15,2013-04-12 15:05:00,
2013-04-12 09:15:00,78.4,57.1,25.93,NNE,32,4.0,6.0,48,0.00,,,0.00,779,Wunderground v.1.15,2013-04-12 15:15:00,
2013-04-12 09:25:00,78.4,57.7,25.93,NNE,17,4.0,6.0,49,0.00,,,0.00,803,Wunderground v.1.15,2013-04-12 15:25:00,
2013-04-12 09:30:00,78.4,57.7,25.93,WNW,294,5.0,5.0,49,0.00,,,0.00,816,Wunderground v.1.15,2013-04-12 15:30:00,
2013-04-12 09:40:00,78.0,58.4,25.93,WSW,254,5.0,6.0,51,0.00,,,0.00,842,Wunderground v.1.15,2013-04-12 15:40:00,
2013-04-12 09:45:00,78.2,57.5,25.92,ENE,75,5.0,10.0,49,0.00,,,0.00,865,Wunderground v.1.15,2013-04-12 15:45:00,
2013-04-12 09:55:00,78.2,59.1,25.92,NNE,29,5.0,6.0,52,0.00,,,0.00,884,Wunderground v.1.15,2013-04-12 15:55:00,
2013-04-12 10:00:00,78.2,60.2,25.92,NNE,28,4.0,6.0,54,0.00,,,0.00,900,Wunderground v.1.15,2013-04-12 16:00:00,
2013-04-12 10:10:00,79.7,58.8,25.92,NNE,14,4.0,4.0,49,0.00,,,0.00,923,Wunderground v.1.15,2013-04-12 16:10:00,
2013-04-12 10:20:00,79.1,59.4,25.92,SE,145,6.0,6.0,51,0.00,,,0.00,963,Wunderground v.1.15,2013-04-12 16:20:00,
2013-04-12 10:30:00,80.6,59.7,25.92,NW,321,3.0,4.0,49,0.00,,,0.00,1007,Wunderground v.1.15,2013-04-12 16:30:00,
2013-04-12 10:35:00,80.8,59.9,25.92,NNE,29,4.0,4.0,49,0.00,,,0.00,1005,Wunderground v.1.15,2013-04-12 16:35:00,
2013-04-12 10:45:00,80.6,60.2,25.92,NNE,12,5.0,5.0,50,0.00,,,0.00,656,Wunderground v.1.15,2013-04-12 16:45:00,
2013-04-12 10:55:00,78.5,60.5,25.91,ESE,102,6.0,6.0,54,0.00,,,0.00,715,Wunderground v.1.15,2013-04-12 16:55:00,
2013-04-12 11:05:00,78.9,60.3,25.91,ENE,67,5.0,6.0,53,0.00,,,0.00,640,Wunderground v.1.15,2013-04-12 17:05:00,
2013-04-12 11:10:00,79.5,60.9,25.90,ESE,107,4.0,4.0,53,0.00,,,0.00,793,Wunderground v.1.15,2013-04-12 17:10:00,
2013-04-12 11:20:00,78.9,60.8,25.90,NE,50,6.0,8.0,54,0.00,,,0.00,1025,Wunderground v.1.15,2013-04-12 17:20:00,
2013-04-12 11:30:00,79.5,60.9,25.90,North,360,6.0,6.0,53,0.00,,,0.00,995,Wunderground v.1.15,2013-04-12 17:30:00,
2013-04-12 11:40:00,79.8,60.1,25.90,NNE,19,6.0,9.0,51,0.00,,,0.00,1011,Wunderground v.1.15,2013-04-12 17:40:00,
2013-04-12 11:50:00,80.2,59.9,25.90,NE,52,5.0,5.0,50,0.00,,,0.00,991,Wunderground v.1.15,2013-04-12 17:50:00,
2013-04-12 12:00:00,79.8,60.6,25.89,NE,46,7.0,7.0,52,0.00,,,0.00,1002,Wunderground v.1.15,2013-04-12 18:00:00,
2013-04-12 12:10:00,80.0,60.8,25.89,ESE,113,6.0,7.0,52,0.00,,,0.00,1069,Wunderground v.1.15,2013-04-12 18:10:00,
2013-04-12 12:20:00,80.8,61.0,25.88,NE,50,6.0,12.0,51,0.00,,,0.00,991,Wunderground v.1.15,2013-04-12 18:20:00,
2013-04-12 13:30:00,79.1,61.5,25.87,North,355,6.0,6.0,55,0.00,,,0.00,828,Wunderground v.1.15,2013-04-12 19:30:00,
2013-04-12 13:35:00,79.1,61.5,25.86,NNW,333,6.0,6.0,55,0.00,,,0.00,831,Wunderground v.1.15,2013-04-12 19:35:00,
2013-04-12 13:40:00,79.7,61.6,25.86,ESE,121,6.0,8.0,54,0.00,,,0.00,824,Wunderground v.1.15,2013-04-12 19:40:00,
2013-04-12 13:45:00,80.2,62.0,25.86,North,360,6.0,8.0,54,0.00,,,0.00,823,Wunderground v.1.15,2013-04-12 19:45:00,
2013-04-12 13:50:00,79.8,62.2,25.86,NE,54,7.0,7.0,55,0.00,,,0.00,782,Wunderground v.1.15,2013-04-12 19:50:00,
2013-04-12 13:55:00,79.8,61.7,25.86,NW,311,6.0,7.0,54,0.00,,,0.00,765,Wunderground v.1.15,2013-04-12 19:55:00,
2013-04-12 14:05:00,79.8,62.2,25.86,North,355,6.0,10.0,55,0.00,,,0.00,733,Wunderground v.1.15,2013-04-12 20:05:00,
2013-04-12 14:15:00,79.3,62.2,25.85,North,355,5.0,6.0,56,0.00,,,0.00,707,Wunderground v.1.15,2013-04-12 20:15:00,
2013-04-12 14:20:00,79.5,62.4,25.85,NW,319,5.0,5.0,56,0.00,,,0.00,719,Wunderground v.1.15,2013-04-12 20:20:00,
2013-04-12 14:30:00,79.5,61.4,25.85,ENE,59,6.0,6.0,54,0.00,,,0.00,698,Wunderground v.1.15,2013-04-12 20:30:00,
2013-04-12 14:35:00,79.8,61.1,25.85,NW,318,5.0,6.0,53,0.00,,,0.00,666,Wunderground v.1.15,2013-04-12 20:35:00,
2013-04-12 14:40:00,80.2,61.5,25.84,NE,42,4.0,6.0,53,0.00,,,0.00,638,Wunderground v.1.15,2013-04-12 20:40:00,
2013-04-12 14:50:00,79.5,62.4,25.84,NNW,328,6.0,6.0,56,0.00,,,0.00,650,Wunderground v.1.15,2013-04-12 20:50:00,
2013-04-12 15:00:00,79.8,62.7,25.84,East,98,4.0,6.0,56,0.00,,,0.00,575,Wunderground v.1.15,2013-04-12 21:00:00,
2013-04-12 15:10:00,79.7,62.6,25.84,North,355,5.0,7.0,56,0.00,,,0.00,520,Wunderground v.1.15,2013-04-12 21:10:00,
2013-04-12 15:15:00,78.7,62.2,25.84,NNE,21,5.0,7.0,57,0.00,,,0.00,512,Wunderground v.1.15,2013-04-12 21:15:00,
2013-04-12 15:25:00,78.4,62.4,25.84,ENE,61,5.0,8.0,58,0.00,,,0.00,489,Wunderground v.1.15,2013-04-12 21:25:00,
2013-04-12 15:30:00,77.8,61.8,25.84,ESE,110,6.0,6.0,58,0.00,,,0.00,420,Wunderground v.1.15,2013-04-12 21:30:00,
2013-04-12 15:35:00,77.8,62.3,25.84,WSW,257,6.0,6.0,59,0.00,,,0.00,406,Wunderground v.1.15,2013-04-12 21:35:00,
2013-04-12 15:50:00,77.1,62.6,25.84,NE,34,5.0,5.0,61,0.00,,,0.00,308,Wunderground v.1.15,2013-04-12 21:50:00,
2013-04-12 16:00:00,76.7,62.2,25.84,North,5,5.0,8.0,61,0.00,,,0.00,234,Wunderground v.1.15,2013-04-12 22:00:00,
2013-04-12 16:10:00,75.7,62.2,25.83,East,99,6.0,6.0,63,0.00,,,0.00,69,Wunderground v.1.15,2013-04-12 22:10:00,
2013-04-12 16:15:00,75.2,62.2,25.84,NNE,12,6.0,6.0,64,0.00,,,0.00,53,Wunderground v.1.15,2013-04-12 22:15:00,
2013-04-12 16:20:00,74.6,62.1,25.84,NNE,17,5.0,5.0,65,0.00,,,0.00,49,Wunderground v.1.15,2013-04-12 22:20:00,
2013-04-12 16:30:00,74.1,62.4,25.84,ESE,115,4.0,4.0,67,0.00,,,0.00,44,Wunderground v.1.15,2013-04-12 22:30:00,
2013-04-12 16:40:00,73.8,63.0,25.84,NNW,341,4.0,4.0,69,0.00,,,0.00,97,Wunderground v.1.15,2013-04-12 22:40:00,
2013-04-12 16:45:00,73.6,62.8,25.85,North,11,4.0,7.0,69,0.00,,,0.00,135,Wunderground v.1.15,2013-04-12 22:45:00,
2013-04-12 16:55:00,73.2,62.8,25.85,North,355,4.0,9.0,70,0.00,,,0.00,49,Wunderground v.1.15,2013-04-12 22:55:00,
2013-04-12 17:00:00,72.9,62.9,25.85,North,5,4.0,7.0,71,0.00,,,0.00,40,Wunderground v.1.15,2013-04-12 23:00:00,
2013-04-12 17:10:00,72.4,62.9,25.86,East,99,4.0,8.0,72,0.00,,,0.00,33,Wunderground v.1.15,2013-04-12 23:10:00,
2013-04-12 17:20:00,72.0,62.5,25.86,NNW,342,4.0,4.0,72,0.00,,,0.00,19,Wunderground v.1.15,2013-04-12 23:20:00,
2013-04-12 17:25:00,71.9,62.8,25.86,NE,38,4.0,4.0,73,0.00,,,0.00,16,Wunderground v.1.15,2013-04-12 23:25:00,
2013-04-12 17:30:00,71.7,62.6,25.86,ESE,111,4.0,4.0,73,0.00,,,0.00,12,Wunderground v.1.15,2013-04-12 23:30:00,
2013-04-12 17:40:00,71.7,63.0,25.86,North,360,4.0,4.0,74,0.00,,,0.00,7,Wunderground v.1.15,2013-04-12 23:40:00,
2013-04-12 17:45:00,71.4,62.7,25.86,SSE,167,2.0,4.0,74,0.00,,,0.00,0,Wunderground v.1.15,2013-04-12 23:45:00,
2013-04-12 17:55:00,71.0,62.7,25.87,West,276,3.0,4.0,75,0.00,,,0.00,0,Wunderground v.1.15,2013-04-12 23:55:00,
2013-04-12 18:05:00,70.7,62.8,25.87,North,10,3.0,4.0,76,0.00,,,0.00,0,Wunderground v.1.15,2013-04-13 00:05:00,
2013-04-12 18:10:00,70.8,62.5,25.87,ENE,69,3.0,3.0,75,0.00,,,0.00,0,Wunderground v.1.15,2013-04-13 00:10:00,
2013-04-12 18:20:00,70.8,62.5,25.88,East,101,2.0,5.0,75,0.00,,,0.00,0,Wunderground v.1.15,2013-04-13 00:20:00,
2013-04-12 18:30:00,70.7,62.8,25.88,North,10,4.0,4.0,76,0.00,,,0.00,0,Wunderground v.1.15,2013-04-13 00:30:00,
2013-04-12 18:40:00,70.3,62.0,25.88,East,95,4.0,4.0,75,0.00,,,0.00,0,Wunderground v.1.15,2013-04-13 00:40:00,
2013-04-12 18:50:00,70.5,61.4,25.89,NE,54,3.0,7.0,73,0.00,,,0.00,0,Wunderground v.1.15,2013-04-13 00:50:00,
2013-04-12 19:00:00,70.2,61.9,25.88,North,5,3.0,3.0,75,0.00,,,0.00,0,Wunderground v.1.15,2013-04-13 01:00:00,
2013-04-12 19:10:00,70.0,61.7,25.89,East,92,2.0,2.0,75,0.00,,,0.00,0,Wunderground v.1.15,2013-04-13 01:10:00,
2013-04-12 19:20:00,69.7,62.2,25.89,SE,144,2.0,2.0,77,0.00,,,0.00,0,Wunderground v.1.15,2013-04-13 01:20:00,
2013-04-12 19:25:00,69.5,62.0,25.89,NNE,19,2.0,4.0,77,0.00,,,0.00,0,Wunderground v.1.15,2013-04-13 01:25:00,
2013-04-12 19:35:00,69.3,61.0,25.89,ENE,67,2.0,4.0,75,0.00,,,0.00,0,Wunderground v.1.15,2013-04-13 01:35:00,
2013-04-12 19:45:00,69.7,61.0,25.89,East,88,2.0,4.0,74,0.00,,,0.00,0,Wunderground v.1.15,2013-04-13 01:45:00,
2013-04-12 19:55:00,70.0,61.3,25.90,East,84,2.0,3.0,74,0.00,,,0.00,0,Wunderground v.1.15,2013-04-13 01:55:00,
2013-04-12 20:00:00,70.2,61.1,25.90,SSE,153,2.0,2.0,73,0.00,,,0.00,0,Wunderground v.1.15,2013-04-13 02:00:00,
2013-04-12 20:10:00,70.0,61.7,25.90,West,281,1.0,5.0,75,0.00,,,0.00,0,Wunderground v.1.15,2013-04-13 02:10:00,
2013-04-12 20:25:00,69.7,61.8,25.91,SE,134,2.0,2.0,76,0.00,,,0.00,0,Wunderground v.1.15,2013-04-13 02:25:00,
2013-04-12 20:30:00,70.0,61.7,25.91,SE,134,1.0,1.0,75,0.00,,,0.00,0,Wunderground v.1.15,2013-04-13 02:30:00,
2013-04-12 20:40:00,69.8,61.1,25.92,ENE,78,1.0,1.0,74,0.00,,,0.00,0,Wunderground v.1.15,2013-04-13 02:40:00,
2013-04-12 20:45:00,69.8,61.1,25.92,WNW,292,1.0,4.0,74,0.00,,,0.00,0,Wunderground v.1.15,2013-04-13 02:45:00,
2013-04-12 20:55:00,69.7,61.0,25.92,East,83,3.0,6.0,74,0.00,,,0.00,0,Wunderground v.1.15,2013-04-13 02:55:00,
2013-04-12 21:05:00,69.7,61.0,25.92,NNE,28,3.0,4.0,74,0.00,,,0.00,0,Wunderground v.1.15,2013-04-13 03:05:00,
2013-04-12 21:10:00,69.7,61.4,25.92,SE,125,3.0,4.0,75,0.00,,,0.00,0,Wunderground v.1.15,2013-04-13 03:10:00,
2013-04-12 21:20:00,69.3,61.4,25.93,West,275,3.0,3.0,76,0.00,,,0.00,0,Wunderground v.1.15,2013-04-13 03:20:00,
2013-04-12 21:30:00,69.2,61.3,25.93,NNE,16,2.0,2.0,76,0.00,,,0.00,0,Wunderground v.1.15,2013-04-13 03:30:00,
2013-04-12 21:40:00,68.7,61.2,25.93,NNE,32,3.0,3.0,77,0.00,,,0.00,0,Wunderground v.1.15,2013-04-13 03:40:00,
2013-04-12 21:50:00,68.5,61.0,25.93,NNE,21,3.0,3.0,77,0.00,,,0.00,0,Wunderground v.1.15,2013-04-13 03:50:00,
2013-04-12 21:55:00,68.5,61.0,25.93,ESE,113,3.0,3.0,77,0.00,,,0.00,0,Wunderground v.1.15,2013-04-13 03:55:00,
2013-04-12 22:00:00,68.5,61.0,25.93,ESE,119,2.0,5.0,77,0.00,,,0.00,0,Wunderground v.1.15,2013-04-13 04:00:00,
2013-04-12 22:05:00,68.7,60.8,25.93,East,90,2.0,5.0,76,0.00,,,0.00,0,Wunderground v.1.15,2013-04-13 04:05:00,
2013-04-12 22:10:00,68.7,60.8,25.93,East,92,3.0,3.0,76,0.00,,,0.00,0,Wunderground v.1.15,2013-04-13 04:10:00,
2013-04-12 22:15:00,68.5,61.0,25.93,NE,49,2.0,3.0,77,0.00,,,0.00,0,Wunderground v.1.15,2013-04-13 04:15:00,
2013-04-12 22:20:00,68.2,60.7,25.93,ESE,115,2.0,7.0,77,0.00,,,0.00,0,Wunderground v.1.15,2013-04-13 04:20:00,
2013-04-12 22:30:00,67.8,60.7,25.93,ESE,121,3.0,3.0,78,0.00,,,0.00,0,Wunderground v.1.15,2013-04-13 04:30:00,
2013-04-12 22:40:00,67.7,60.6,25.93,West,264,3.0,3.0,78,0.00,,,0.00,0,Wunderground v.1.15,2013-04-13 04:40:00,
2013-04-12 22:50:00,67.5,60.4,25.93,ESE,105,2.0,2.0,78,0.00,,,0.00,0,Wunderground v.1.15,2013-04-13 04:50:00,
2013-04-12 23:00:00,67.5,60.0,25.92,ESE,111,2.0,2.0,77,0.00,,,0.00,0,Wunderground v.1.15,2013-04-13 05:00:00,
2013-04-12 23:10:00,67.3,59.8,25.92,East,84,2.0,2.0,77,0.00,,,0.00,0,Wunderground v.1.15,2013-04-13 05:10:00,
2013-04-12 23:15:00,67.2,59.7,25.92,NE,47,2.0,2.0,77,0.00,,,0.00,0,Wunderground v.1.15,2013-04-13 05:15:00,
2013-04-12 23:25:00,67.0,59.9,25.91,East,97,1.0,2.0,78,0.00,,,0.00,0,Wunderground v.1.15,2013-04-13 05:25:00,
2013-04-12 23:35:00,66.7,60.0,25.91,SSW,212,1.0,1.0,79,0.00,,,0.00,0,Wunderground v.1.15,2013-04-13 05:35:00,
2013-04-12 23:40:00,66.7,60.0,25.91,NNW,336,1.0,1.0,79,0.00,,,0.00,0,Wunderground v.1.15,2013-04-13 05:40:00,
2013-04-12 23:45:00,66.3,59.6,25.91,NNW,339,1.0,1.0,79,0.00,,,0.00,0,Wunderground v.1.15,2013-04-13 05:45:00,
2013-04-12 23:55:00,66.3,59.2,25.91,NW,323,0.0,1.0,78,0.00,,,0.00,0,Wunderground v.1.15,2013-04-13 05:55:00,